[[{"header":{"parameterUnit":"m.s-1","parameterCategory":2,"la1":30.2992,"la2":30.254,"lo1":-89.0895,"lo2":-89.0443,"dy":0.0025,"dx":0.0025,"nx":19,"ny":19,"refTime":"2026-03-29T21:00:00:Z","depth":"0","parameterNumber":2,"parameterNumberName":"U-component_of_CURRENTS"},"data":[0,0,0,0.1788,0.1788,0.1773,0.1772,0.1739,0.1739,0,0,0,0,0,0,0,0,0,0,0,0.1789,0.1789,0.1788,0.1788,0.1773,0.1772,0.1739,0.1739,0,0,0,0,0,0,0,0,0,0,0,0.1789,0.1789,0.1789,0.1788,0.1773,0.1772,0.1739,0.1752,0,0,0,0,0,0,0,0,0,0,0.1768,0.1773,0.1789,0.1789,0.1788,0.1773,0.1772,0.1753,0.1752,0.1744,0,0.1744,0,0.1745,0.1737,0.1737,0,0,0,0.178,0.1774,0.1773,0.1789,0.1788,0.1773,0.1777,0.1752,0.1751,0.1742,0.1744,0.1743,0.1745,0.1737,0.1737,0.1759,0.176,0,0,0.1781,0.1782,0.1774,0.1772,0.1786,0.1778,0.1777,0.1751,0.1749,0.1744,0.1742,0.1744,0.1737,0.1737,0.1759,0.1759,0,0,0,0.1788,0.1783,0.1782,0.1773,0.1774,0.1778,0.1777,0.175,0.175,0.1742,0.1744,0.1737,0.1736,0.1758,0.1759,0.1778,0,0,0,0.1789,0.1788,0.1783,0.1782,0.1775,0.1764,0.1775,0.1752,0.1749,0.1744,0.1737,0.1736,0.1758,0.1759,0.1777,0.1745,0,0,0,0.1789,0.1788,0.1787,0.1783,0.178,0.1764,0.1763,0.1751,0.1751,0.1737,0.1736,0.1757,0.1758,0.1775,0.1744,0.1698,0,0,0,0.1788,0.1775,0.1787,0.1778,0.1781,0.1779,0.1763,0.176,0.1751,0.1736,0.1758,0.1759,0.1775,0.1743,0.1699,0.1557,0.1544,0,0,0.1767,0.1772,0.1768,0.1779,0.1771,0.1781,0.1785,0.1767,0.1766,0.1762,0.1763,0.1777,0.1744,0.1698,0.162,0.1604,0,0,0,0.1759,0.1754,0.1755,0.1757,0.1766,0.1772,0.1774,0.179,0.1801,0.1767,0.1794,0.1771,0.1742,0.1658,0.1647,0.1408,0.1764,0.1764,0.1764,0.1718,0.1732,0.172,0.1736,0.1743,0.1772,0.1783,0.1807,0.1813,0.1839,0.1802,0.1796,0.1711,0.17,0.1457,0.184,0.184,0.184,0.184,0.1683,0.1673,0.1696,0.1687,0.1713,0.1725,0.1779,0.1805,0.1817,0.1844,0.1815,0.1701,0.1688,0.1433,0.1842,0.1841,0.1841,0.1841,0.1841,0.165,0.1645,0.1647,0.1648,0.1656,0.1692,0.1702,0.1765,0.1793,0.1792,0.166,0.1657,0.1414,0.177,0.177,0.1769,0.1769,0.1769,0.1769,0.161,0.1613,0.16,0.1605,0.1602,0.1615,0.1661,0.1658,0.1629,0.1634,0.1633,0.1371,0.1773,0.1753,0.1764,0.1765,0.1765,0.1766,0.1766,0.1561,0.1571,0.1549,0.1541,0.1525,0.1456,0.1526,0.1432,0.1439,0.1374,0.1149,0.1544,0.1504,0.1512,0.1485,0.1426,0.1426,0.1426,0.1426,0.153,0.1533,0.1483,0.1445,0.141,0.1374,0.1191,0.1126,0.0983,0.0853,0.0876,0.0846,0.0871,0.0792,0.0816,0.0776,0.0538,0.0537,0.0535,0.1499,0.1489,0.1421,0.1376,0.1329,0.1226,0.0975,0.0725,0.0511,0.048,0.0567,0.0604,0.0549,0.0607,0.0483,0.0536,0.0471,0,0]},{"header":{"parameterUnit":"m.s-1","parameterCategory":2,"la1":30.2992,"la2":30.254,"lo1":-89.0895,"lo2":-89.0443,"dy":0.0025,"dx":0.0025,"nx":19,"ny":19,"refTime":"2026-03-29T21:00:00:Z","depth":"0","parameterNumber":3,"parameterNumberName":"V-component_of_CURRENTS"},"data":[0,0,0,0.0062,0.0062,0.0085,0.0085,0.0143,0.0144,0,0,0,0,0,0,0,0,0,0,0,0.0055,0.0055,0.0062,0.0062,0.0085,0.0085,0.0143,0.0144,0,0,0,0,0,0,0,0,0,0,0,0.0055,0.0055,0.0055,0.0062,0.0085,0.0085,0.0143,0.012,0,0,0,0,0,0,0,0,0,0,0.0095,0.0084,0.0055,0.0055,0.0062,0.0085,0.0085,0.0118,0.0121,0.014,0,0.0141,0,0.0142,0.0148,0.0148,0,0,0,0.0067,0.0081,0.0085,0.0055,0.0062,0.0085,0.0076,0.012,0.0123,0.0144,0.0142,0.0144,0.0143,0.0149,0.0149,0.0204,0.0204,0,0,0.0065,0.0063,0.0083,0.0087,0.0066,0.0075,0.0077,0.0122,0.0126,0.0142,0.0145,0.0144,0.0149,0.0149,0.0204,0.0204,0,0,0,0.0059,0.0062,0.0065,0.0085,0.0086,0.0076,0.0077,0.0124,0.0124,0.0146,0.0145,0.0149,0.015,0.0203,0.0204,0.0251,0,0,0,0.0058,0.0058,0.0064,0.0064,0.0085,0.0102,0.0079,0.0121,0.0126,0.0145,0.0149,0.0151,0.0203,0.0204,0.0249,0.0295,0,0,0,0.0054,0.0058,0.0059,0.0063,0.0071,0.0101,0.0104,0.0122,0.0126,0.0148,0.0151,0.0203,0.0203,0.0248,0.0292,0.034,0,0,0,0.0054,0.0068,0.0059,0.0079,0.007,0.0102,0.0103,0.0126,0.0146,0.015,0.0203,0.0204,0.0247,0.029,0.0337,0.0389,0.0405,0,0,0.0074,0.007,0.0084,0.0076,0.0109,0.0099,0.0146,0.0165,0.0157,0.0191,0.0192,0.025,0.0292,0.0339,0.0407,0.0423,0,0,0,0.0092,0.0103,0.0112,0.0127,0.0139,0.0176,0.0179,0.0187,0.0213,0.0169,0.0243,0.0268,0.0297,0.0322,0.0334,0.0367,0.0205,0.0205,0.0205,0.0129,0.0133,0.0162,0.0176,0.0198,0.0227,0.0259,0.027,0.0246,0.0257,0.0301,0.0364,0.039,0.04,0.0432,0.028,0.028,0.028,0.028,0.0175,0.0197,0.0206,0.0234,0.0262,0.03,0.0346,0.0342,0.0389,0.0343,0.0367,0.0363,0.0416,0.0446,0.0283,0.0282,0.0282,0.0282,0.0282,0.0209,0.0219,0.0228,0.0268,0.0322,0.0358,0.0447,0.046,0.0447,0.0478,0.0501,0.05,0.0534,0.0482,0.0483,0.0483,0.0484,0.0484,0.0484,0.0238,0.0248,0.0277,0.0314,0.0351,0.0427,0.0514,0.0557,0.0594,0.0579,0.0579,0.0566,0.0426,0.0427,0.0491,0.0489,0.0489,0.0488,0.0488,0.0284,0.0279,0.0326,0.0358,0.0445,0.0525,0.0604,0.0699,0.0738,0.0758,0.0737,0.0631,0.0629,0.0619,0.0624,0.0735,0.0735,0.0735,0.0735,0.0312,0.0313,0.0369,0.0425,0.051,0.0577,0.0693,0.078,0.0846,0.088,0.0857,0.0815,0.0803,0.0808,0.0794,0.0801,0.0954,0.0954,0.0954,0.0344,0.0355,0.0395,0.0433,0.0527,0.062,0.0697,0.077,0.0906,0.0964,0.0898,0.0888,0.0822,0.0801,0.0798,0.0775,0.0781,0,0]}],[{"header":{"parameterUnit":"m.s-1","parameterCategory":2,"la1":30.2992,"la2":30.254,"lo1":-89.0895,"lo2":-89.0443,"dy":0.0025,"dx":0.0025,"nx":19,"ny":19,"refTime":"2026-03-29T21:00:00:Z","depth":"2","parameterNumber":2,"parameterNumberName":"U-component_of_CURRENTS"},"data":[0,0,0,0.164,0.164,0.1661,0.1661,0.1711,0.1711,0,0,0,0,0,0,0,0,0,0,0,0.1624,0.1624,0.164,0.1641,0.1661,0.1661,0.1711,0.1711,0,0,0,0,0,0,0,0,0,0,0,0.1624,0.1624,0.1624,0.1641,0.1661,0.1661,0.1711,0.1689,0,0,0,0,0,0,0,0,0,0,0.1665,0.166,0.1624,0.1624,0.1641,0.1661,0.1661,0.1687,0.169,0.1709,0,0.1707,0,0.1716,0.1715,0.1716,0,0,0,0.1638,0.1658,0.1654,0.1624,0.1641,0.1661,0.1651,0.1689,0.1692,0.1712,0.1708,0.171,0.1717,0.1716,0.1716,0.1789,0.179,0,0,0.1637,0.164,0.1651,0.1656,0.1641,0.1651,0.1652,0.169,0.1698,0.1708,0.1711,0.1718,0.1716,0.1717,0.1789,0.1789,0,0,0,0.1635,0.164,0.1634,0.1653,0.1659,0.1651,0.1653,0.1696,0.1691,0.1711,0.1718,0.1717,0.1717,0.1789,0.1789,0.1819,0,0,0,0.1634,0.1639,0.1633,0.1637,0.1658,0.1678,0.1658,0.1688,0.1693,0.1718,0.1717,0.1718,0.1788,0.1789,0.1818,0.1803,0,0,0,0.1624,0.1639,0.1636,0.1637,0.1647,0.1678,0.1675,0.1689,0.1698,0.1716,0.1718,0.1788,0.1789,0.1816,0.1802,0.1746,0,0,0,0.1633,0.1628,0.1636,0.1635,0.1647,0.166,0.1675,0.1706,0.1724,0.1717,0.1788,0.1789,0.1816,0.1801,0.1746,0.1598,0.1585,0,0,0.1628,0.1628,0.1625,0.1632,0.1643,0.1657,0.1686,0.1725,0.1743,0.1776,0.1778,0.1818,0.1802,0.1746,0.1646,0.1631,0,0,0,0.1624,0.1621,0.1622,0.1636,0.1649,0.1679,0.1715,0.1739,0.1794,0.1757,0.1827,0.1815,0.1778,0.169,0.1679,0.1793,0.1793,0.1793,0.1793,0.1606,0.1619,0.1619,0.1636,0.1658,0.1711,0.174,0.1785,0.1803,0.1843,0.1847,0.1833,0.1744,0.1733,0.187,0.187,0.187,0.187,0.187,0.1592,0.1588,0.1619,0.163,0.1673,0.1716,0.1778,0.1817,0.1847,0.1878,0.1841,0.1737,0.1722,0.1873,0.1872,0.1872,0.1872,0.1872,0.1871,0.1571,0.1573,0.1592,0.1628,0.1673,0.1726,0.1748,0.1818,0.185,0.1855,0.1703,0.17,0.1807,0.1821,0.1821,0.1821,0.1821,0.182,0.182,0.1548,0.1563,0.158,0.1616,0.164,0.1679,0.1735,0.1732,0.1694,0.1696,0.1694,0.1815,0.1817,0.1803,0.1816,0.1817,0.1817,0.1818,0.1818,0.1541,0.154,0.1553,0.1571,0.1593,0.1525,0.1595,0.1494,0.1495,0.1428,0.1587,0.1594,0.1549,0.1557,0.1535,0.1478,0.1478,0.1478,0.1478,0.1526,0.1527,0.1506,0.1495,0.1475,0.1442,0.1248,0.1165,0.1205,0.123,0.1241,0.124,0.1259,0.1198,0.1214,0.1187,0.1039,0.1038,0.1038,0.1533,0.1513,0.1468,0.1426,0.1396,0.1287,0.1027,0.0794,0.0829,0.1024,0.1199,0.1442,0.1472,0.1489,0.1423,0.1438,0.1404,0,0]},{"header":{"parameterUnit":"m.s-1","parameterCategory":2,"la1":30.2992,"la2":30.254,"lo1":-89.0895,"lo2":-89.0443,"dy":0.0025,"dx":0.0025,"nx":19,"ny":19,"refTime":"2026-03-29T21:00:00:Z","depth":"2","parameterNumber":3,"parameterNumberName":"V-component_of_CURRENTS"},"data":[0,0,0,0.0139,0.0139,0.0164,0.0164,0.0197,0.0198,0,0,0,0,0,0,0,0,0,0,0,0.0133,0.0133,0.0139,0.0139,0.0164,0.0164,0.0197,0.0198,0,0,0,0,0,0,0,0,0,0,0,0.0133,0.0133,0.0133,0.0139,0.0164,0.0164,0.0197,0.0179,0,0,0,0,0,0,0,0,0,0,0.0154,0.0143,0.0133,0.0133,0.0139,0.0164,0.0165,0.0178,0.018,0.0186,0,0.0191,0,0.0193,0.02,0.02,0,0,0,0.0142,0.0141,0.0152,0.0133,0.014,0.0164,0.0154,0.0179,0.0181,0.0188,0.0191,0.0192,0.0193,0.02,0.02,0.0249,0.0249,0,0,0.014,0.0133,0.0151,0.0154,0.0148,0.0153,0.0154,0.018,0.0181,0.0191,0.0193,0.0194,0.02,0.02,0.0249,0.0249,0,0,0,0.0135,0.0132,0.0143,0.0152,0.0156,0.0154,0.0155,0.018,0.0185,0.0193,0.0194,0.02,0.0201,0.0248,0.0249,0.0277,0,0,0,0.0134,0.0129,0.0142,0.0138,0.0155,0.0167,0.0154,0.0183,0.0186,0.0194,0.02,0.0201,0.0248,0.0249,0.0276,0.0314,0,0,0,0.0131,0.0128,0.0133,0.0137,0.0147,0.0166,0.0172,0.0184,0.0186,0.02,0.0201,0.0248,0.0248,0.0274,0.0311,0.0355,0,0,0,0.0121,0.0134,0.0133,0.0152,0.0147,0.0189,0.0172,0.0194,0.0208,0.02,0.0248,0.0249,0.0274,0.0309,0.0353,0.0394,0.0408,0,0,0.0133,0.0135,0.0149,0.0149,0.019,0.0186,0.0236,0.0238,0.0221,0.0239,0.024,0.0276,0.0311,0.0354,0.0437,0.045,0,0,0,0.0151,0.0162,0.0176,0.0197,0.0223,0.0259,0.0262,0.0265,0.0269,0.0231,0.0283,0.0305,0.0331,0.0352,0.0362,0.0252,0.0252,0.0252,0.0252,0.0162,0.018,0.0212,0.0242,0.0271,0.031,0.0335,0.0339,0.0312,0.0312,0.0332,0.0394,0.0415,0.0424,0.0323,0.0323,0.0323,0.0323,0.0323,0.0191,0.0215,0.024,0.0274,0.0316,0.0355,0.04,0.039,0.0422,0.0376,0.0399,0.0386,0.0437,0.0326,0.0325,0.0325,0.0325,0.0325,0.0324,0.0205,0.0219,0.0234,0.0285,0.034,0.0387,0.0468,0.0478,0.0459,0.0483,0.0507,0.0507,0.0426,0.0488,0.0488,0.0489,0.0489,0.0489,0.0489,0.021,0.023,0.0259,0.0305,0.0347,0.0422,0.0511,0.0552,0.0584,0.0569,0.0569,0.045,0.0445,0.0437,0.0495,0.0494,0.0493,0.0493,0.0492,0.024,0.0234,0.0284,0.0321,0.0421,0.0498,0.0584,0.0678,0.0715,0.073,0.0619,0.0614,0.0618,0.0609,0.0606,0.0704,0.0704,0.0705,0.0705,0.0252,0.0255,0.0317,0.0385,0.0479,0.0545,0.0639,0.0686,0.0717,0.071,0.0709,0.0661,0.0653,0.0655,0.0645,0.064,0.0748,0.0748,0.0748,0.0277,0.0288,0.0339,0.0394,0.0501,0.0585,0.0612,0.0579,0.0634,0.0744,0.0665,0.0717,0.0643,0.0632,0.0628,0.0615,0.0605,0,0]}],[{"header":{"parameterUnit":"m.s-1","parameterCategory":2,"la1":30.2992,"la2":30.254,"lo1":-89.0895,"lo2":-89.0443,"dy":0.0025,"dx":0.0025,"nx":19,"ny":19,"refTime":"2026-03-29T21:00:00:Z","depth":"4","parameterNumber":2,"parameterNumberName":"U-component_of_CURRENTS"},"data":[0,0,0,0.0859,0.086,0.0943,0.0943,0.1042,0.1043,0,0,0,0,0,0,0,0,0,0,0,0.0836,0.0836,0.0858,0.086,0.0943,0.0943,0.1042,0.1043,0,0,0,0,0,0,0,0,0,0,0,0.0836,0.0836,0.0837,0.086,0.0943,0.0943,0.1042,0.0983,0,0,0,0,0,0,0,0,0,0,0.0905,0.0885,0.0836,0.0837,0.0861,0.0943,0.0944,0.0981,0.0987,0.0999,0,0.1012,0,0.1023,0.1048,0.1048,0,0,0,0.087,0.088,0.0896,0.0837,0.0861,0.0943,0.0908,0.0984,0.0991,0.1007,0.1014,0.1017,0.1025,0.1049,0.1049,0.1122,0.1122,0,0,0.0865,0.0858,0.0891,0.09,0.0883,0.0906,0.0911,0.0989,0.1,0.1014,0.102,0.1026,0.1049,0.105,0.1122,0.1122,0,0,0,0.0846,0.0855,0.087,0.0896,0.0908,0.0908,0.0914,0.0997,0.1,0.1021,0.1028,0.105,0.1051,0.1122,0.1122,0.1121,0,0,0,0.0843,0.0843,0.0867,0.0865,0.0907,0.0955,0.092,0.0995,0.1004,0.1027,0.105,0.1052,0.1122,0.1122,0.1121,0.1116,0,0,0,0.0832,0.0842,0.085,0.0864,0.0894,0.0954,0.0963,0.0997,0.1007,0.1049,0.1052,0.1122,0.1122,0.112,0.1116,0.1148,0,0,0,0.0823,0.083,0.085,0.086,0.0893,0.0927,0.0962,0.1006,0.1041,0.105,0.1122,0.1122,0.112,0.1116,0.1147,0.0974,0,0,0,0.0821,0.083,0.0833,0.0852,0.0868,0.0917,0.0955,0.102,0.1051,0.1097,0.1099,0.1121,0.1116,0.1147,0.1002,0,0,0,0,0.0824,0.0826,0.0834,0.0852,0.0884,0.093,0.0991,0.1024,0.1089,0.1072,0.113,0.1127,0.1147,0.1044,0.1124,0.1124,0.1124,0.1124,0.1124,0.0812,0.082,0.0825,0.0846,0.0877,0.0948,0.0994,0.1054,0.1085,0.1117,0.1133,0.1164,0.1055,0.1143,0.1143,0.1143,0.1143,0.1143,0.1143,0.0789,0.0784,0.0813,0.0823,0.0876,0.0924,0.1013,0.1057,0.1134,0.1141,0.1161,0.1058,0.1143,0.1143,0.1143,0.1143,0.1143,0.1143,0.1143,0.0764,0.0762,0.0779,0.0802,0.0851,0.0924,0.0978,0.1062,0.1134,0.116,0.1079,0.1174,0.1168,0.1186,0.1186,0.1186,0.1186,0.1187,0.1187,0.073,0.0743,0.075,0.0782,0.0806,0.0864,0.0973,0.1014,0.1102,0.1061,0.1174,0.1179,0.1178,0.1171,0.1189,0.1188,0.1188,0.1188,0.1188,0.069,0.0709,0.0704,0.072,0.0754,0.0776,0.0892,0.0928,0.0968,0.0964,0.1012,0.1021,0.101,0.1013,0.1,0.0968,0.0966,0.0963,0,0.0669,0.0674,0.0669,0.0665,0.0662,0.0718,0.0711,0.077,0.0855,0.0829,0.0988,0.1043,0.1047,0.1036,0.1035,0.1019,0,0,0,0.065,0.0647,0.0634,0.0625,0.0609,0.0623,0.0702,0.0692,0.084,0.0806,0.0909,0.0924,0.1053,0.1194,0.1199,0.1197,0.1186,0,0]},{"header":{"parameterUnit":"m.s-1","parameterCategory":2,"la1":30.2992,"la2":30.254,"lo1":-89.0895,"lo2":-89.0443,"dy":0.0025,"dx":0.0025,"nx":19,"ny":19,"refTime":"2026-03-29T21:00:00:Z","depth":"4","parameterNumber":3,"parameterNumberName":"V-component_of_CURRENTS"},"data":[0,0,0,0.0217,0.0218,0.0258,0.0258,0.0309,0.031,0,0,0,0,0,0,0,0,0,0,0,0.0204,0.0205,0.0217,0.0218,0.0258,0.0258,0.0309,0.031,0,0,0,0,0,0,0,0,0,0,0,0.0204,0.0205,0.0205,0.0218,0.0258,0.0258,0.0309,0.028,0,0,0,0,0,0,0,0,0,0,0.0241,0.0228,0.0205,0.0205,0.0218,0.0258,0.0258,0.0278,0.0282,0.0291,0,0.0297,0,0.0303,0.0313,0.0313,0,0,0,0.0221,0.0225,0.0236,0.0205,0.0218,0.0257,0.024,0.028,0.0284,0.0295,0.0298,0.03,0.0304,0.0313,0.0314,0.0375,0.0375,0,0,0.0219,0.0212,0.0233,0.0238,0.0229,0.0239,0.0242,0.0282,0.0286,0.0298,0.0301,0.0305,0.0314,0.0314,0.0375,0.0375,0,0,0,0.021,0.0211,0.0221,0.0236,0.0243,0.024,0.0243,0.0285,0.0288,0.0301,0.0305,0.0314,0.0315,0.0374,0.0375,0.0401,0,0,0,0.0209,0.0206,0.022,0.0216,0.0242,0.0264,0.0244,0.0285,0.029,0.0305,0.0314,0.0315,0.0374,0.0375,0.04,0.0412,0,0,0,0.0203,0.0205,0.021,0.0216,0.0232,0.0263,0.0269,0.0286,0.0292,0.0313,0.0315,0.0374,0.0375,0.0398,0.041,0.0419,0,0,0,0.0195,0.0207,0.0209,0.0231,0.0231,0.0277,0.0269,0.0303,0.0323,0.0314,0.0374,0.0375,0.0398,0.0408,0.0417,0.0375,0,0,0,0.0206,0.0208,0.0223,0.0227,0.0272,0.0272,0.0324,0.0342,0.0336,0.036,0.0362,0.04,0.041,0.0418,0.0419,0,0,0,0,0.0225,0.0236,0.0251,0.0277,0.0307,0.0341,0.036,0.0366,0.0385,0.0351,0.0408,0.0413,0.0418,0.039,0.0379,0.0378,0.0378,0.0378,0.0378,0.0228,0.0252,0.0286,0.0321,0.0353,0.0394,0.0417,0.0428,0.0421,0.043,0.044,0.0474,0.0446,0.0446,0.0447,0.0447,0.0447,0.0447,0.0447,0.0251,0.0272,0.0312,0.0351,0.0393,0.0437,0.0475,0.0474,0.0492,0.0475,0.0478,0.0427,0.045,0.0449,0.0449,0.0448,0.0448,0.0448,0.0448,0.0253,0.0266,0.0294,0.0354,0.0411,0.0461,0.0506,0.0522,0.0515,0.0524,0.0484,0.0491,0.0482,0.0522,0.0522,0.0522,0.0522,0.0522,0.0522,0.0234,0.0266,0.0294,0.0357,0.0397,0.0457,0.052,0.0534,0.0541,0.0513,0.053,0.0499,0.0496,0.0486,0.0524,0.0524,0.0524,0.0523,0.0523,0.0231,0.0239,0.0279,0.0315,0.04,0.0445,0.0511,0.0534,0.0539,0.0523,0.0502,0.0503,0.0488,0.0485,0.0474,0.051,0.0509,0.0509,0,0.0217,0.0227,0.0264,0.0311,0.037,0.0435,0.0462,0.049,0.049,0.0472,0.052,0.0495,0.0496,0.0476,0.0474,0.0459,0,0,0,0.0212,0.0223,0.0241,0.0287,0.0354,0.0411,0.0467,0.0463,0.0493,0.0498,0.0498,0.0501,0.0528,0.0529,0.0506,0.0503,0.0485,0,0]}]]